When you browse on this site, cookies collect data to enhance your experience and personalize the content and advertising you see.
Visit our Privacy Policy to learn more. By continuing to use the site, you agree to this use of cookies and data.
  • Em Portugal
  • Lista de países
  • Para 7 dias
  • Temperatura da água
  • Mapas de satélite
  • Mapa do tempo
  • Widgets de tempo
  • user-avatar
    Iniciar Sessão

    Previsão horária em Trzebiele

    Hoje, 18 Janeiro, Sexta-feira

    Tempo Temperatura Precipitação Vento Pressão Humidade
    00:00 0°C° 0.3 mm 4 m/s 732 mmHg 85%
    01:00 0°C° 0 mm 4 m/s 732 mmHg 85%
    02:00 0°C° 0.4 mm 4 m/s 733 mmHg 85%
    03:00 -1°C° 0.4 mm 5 m/s 734 mmHg 85%
    04:00 -1°C° 0.4 mm 5 m/s 734 mmHg 86%
    05:00 -2°C° 0.1 mm 5 m/s 735 mmHg 83%
    06:00 -2°C° 0.1 mm 5 m/s 736 mmHg 81%
    07:00 -4°C° 0 mm 5 m/s 738 mmHg 77%
    08:00 -4°C° 0 mm 5 m/s 739 mmHg 75%
    09:00 -4°C° 0 mm 5 m/s 740 mmHg 73%
    10:00 -4°C° 0 mm 5 m/s 740 mmHg 70%
    11:00 -4°C° 0 mm 5 m/s 741 mmHg 67%
    12:00 -2°C° 0 mm 5 m/s 742 mmHg 65%
    13:00 -1°C° 0 mm 5 m/s 742 mmHg 62%
    14:00 -2°C° 0.1 mm 4 m/s 743 mmHg 67%
    15:00 -2°C° 0.1 mm 4 m/s 743 mmHg 72%
    16:00 -2°C° 0.1 mm 3 m/s 743 mmHg 77%
    17:00 -2°C° 0.1 mm 3 m/s 744 mmHg 80%
    18:00 -2°C° 0.1 mm 3 m/s 744 mmHg 82%
    19:00 -4°C° 0.1 mm 3 m/s 744 mmHg 84%
    20:00 -4°C° 0 mm 3 m/s 744 mmHg 86%
    21:00 -4°C° 0 mm 3 m/s 744 mmHg 87%
    22:00 -4°C° 0 mm 3 m/s 745 mmHg 88%
    23:00 -4°C° 0 mm 3 m/s 745 mmHg 89%

    Amanhã, 19 Janeiro, Sábado

    Tempo Temperatura Precipitação Vento Pressão Humidade
    00:00 -4°C° 0 mm 3 m/s 745 mmHg 90%
    01:00 -4°C° 0 mm 3 m/s 745 mmHg 92%
    02:00 -4°C° 0 mm 3 m/s 746 mmHg 90%
    03:00 -4°C° 0 mm 3 m/s 746 mmHg 88%
    04:00 -3°C° 0 mm 2 m/s 746 mmHg 86%
    05:00 -3°C° 0 mm 2 m/s 746 mmHg 86%
    06:00 -4°C° 0 mm 3 m/s 746 mmHg 86%
    07:00 -4°C° 0 mm 3 m/s 746 mmHg 86%
    08:00 -4°C° 0 mm 3 m/s 747 mmHg 86%
    09:00 -2°C° 0 mm 3 m/s 747 mmHg 85%
    10:00 -2°C° 0 mm 3 m/s 747 mmHg 85%
    11:00 -1°C° 0 mm 3 m/s 747 mmHg 83%
    12:00 -1°C° 0 mm 3 m/s 747 mmHg 81%
    13:00 0°C° 0 mm 3 m/s 747 mmHg 79%
    14:00 -1°C° 0 mm 3 m/s 747 mmHg 82%
    15:00 -1°C° 0 mm 2 m/s 747 mmHg 85%
    16:00 -2°C° 0 mm 2 m/s 747 mmHg 88%
    17:00 -2°C° 0 mm 2 m/s 747 mmHg 89%
    18:00 -3°C° 0 mm 2 m/s 747 mmHg 90%
    19:00 -3°C° 0 mm 2 m/s 747 mmHg 91%
    20:00 -3°C° 0 mm 2 m/s 747 mmHg 91%
    21:00 -3°C° 0 mm 2 m/s 747 mmHg 91%
    22:00 -3°C° 0 mm 2 m/s 747 mmHg 90%
    23:00 -3°C° 0 mm 2 m/s 747 mmHg 90%

    Depois de amanhã, 20 Janeiro, Domingo

    Tempo Temperatura Precipitação Vento Pressão Humidade
    00:00 -4°C° 0 mm 2 m/s 747 mmHg 89%
    01:00 -4°C° 0 mm 2 m/s 746 mmHg 89%
    02:00 -4°C° 0 mm 2 m/s 746 mmHg 89%
    03:00 -4°C° 0 mm 2 m/s 746 mmHg 89%
    04:00 -4°C° 0 mm 2 m/s 746 mmHg 89%
    05:00 -4°C° 0 mm 2 m/s 746 mmHg 89%
    06:00 -2°C° 0 mm 1 m/s 746 mmHg 89%
    07:00 -2°C° 0 mm 1 m/s 746 mmHg 89%
    08:00 -2°C° 0 mm 1 m/s 746 mmHg 87%
    09:00 -3°C° 0 mm 2 m/s 746 mmHg 85%
    10:00 -3°C° 0 mm 2 m/s 746 mmHg 83%
    11:00 -2°C° 0 mm 2 m/s 746 mmHg 82%
    12:00 -1°C° 0 mm 2 m/s 746 mmHg 81%
    13:00 -1°C° 0 mm 2 m/s 746 mmHg 80%
    14:00 -1°C° 0 mm 2 m/s 746 mmHg 83%
    15:00 -1°C° 0 mm 2 m/s 746 mmHg 86%
    16:00 -1°C° 0 mm 2 m/s 746 mmHg 89%
    17:00 -2°C° 0 mm 2 m/s 746 mmHg 90%
    18:00 -2°C° 0 mm 2 m/s 747 mmHg 91%
    19:00 -3°C° 0 mm 2 m/s 747 mmHg 92%
    20:00 -3°C° 0 mm 2 m/s 747 mmHg 92%
    21:00 -3°C° 0 mm 2 m/s 748 mmHg 92%
    22:00 -2°C° 0 mm 2 m/s 748 mmHg 93%
    23:00 0°C° 0 mm 1 m/s 748 mmHg 93%

    21 Janeiro, Segunda-feira

    Tempo Temperatura Precipitação Vento Pressão Humidade
    00:00 0°C° 0 mm 1 m/s 749 mmHg 93%
    01:00 0°C° 0 mm 1 m/s 749 mmHg 93%
    02:00 0°C° 0 mm 1 m/s 749 mmHg 94%
    03:00 0°C° 0 mm 1 m/s 749 mmHg 94%
    04:00 -1°C° 0 mm 1 m/s 749 mmHg 95%
    05:00 0°C° 0 mm 1 m/s 749 mmHg 95%
    06:00 0°C° 0 mm 1 m/s 749 mmHg 94%
    07:00 -2°C° 0 mm 2 m/s 749 mmHg 94%
    08:00 -2°C° 0.1 mm 2 m/s 749 mmHg 91%
    09:00 -2°C° 0.1 mm 2 m/s 749 mmHg 89%
    10:00 -2°C° 0.1 mm 3 m/s 749 mmHg 86%
    11:00 -1°C° 0 mm 3 m/s 749 mmHg 82%
    12:00 -1°C° 0 mm 3 m/s 749 mmHg 78%
    13:00 -1°C° 0 mm 3 m/s 749 mmHg 74%
    14:00 -1°C° 0 mm 3 m/s 748 mmHg 74%
    15:00 -2°C° 0 mm 3 m/s 748 mmHg 74%
    16:00 -2°C° 0 mm 3 m/s 748 mmHg 74%
    17:00 -3°C° 0 mm 4 m/s 747 mmHg 73%
    18:00 -3°C° 0 mm 4 m/s 747 mmHg 72%
    19:00 -3°C° 0 mm 4 m/s 747 mmHg 71%
    20:00 -3°C° 0 mm 4 m/s 746 mmHg 72%
    21:00 -3°C° 0 mm 4 m/s 746 mmHg 72%
    22:00 -4°C° 0 mm 4 m/s 746 mmHg 72%
    23:00 -4°C° 0 mm 4 m/s 745 mmHg 74%

    22 Janeiro, Terça-feira

    Tempo Temperatura Precipitação Vento Pressão Humidade
    00:00 -4°C° 0 mm 3 m/s 745 mmHg 76%
    01:00 -4°C° 0 mm 3 m/s 745 mmHg 77%
    02:00 -4°C° 0 mm 3 m/s 744 mmHg 78%
    03:00 -4°C° 0 mm 3 m/s 744 mmHg 79%
    04:00 -4°C° 0 mm 3 m/s 743 mmHg 80%
    05:00 -4°C° 0 mm 3 m/s 743 mmHg 78%
    06:00 -4°C° 0 mm 3 m/s 742 mmHg 76%
    07:00 -4°C° 0 mm 3 m/s 742 mmHg 75%
    08:00 -4°C° 0 mm 3 m/s 741 mmHg 71%
    09:00 -4°C° 0 mm 4 m/s 741 mmHg 67%
    10:00 -4°C° 0 mm 4 m/s 740 mmHg 63%
    11:00 -3°C° 0 mm 4 m/s 739 mmHg 61%
    12:00 -4°C° 0 mm 5 m/s 739 mmHg 60%
    13:00 -4°C° 0 mm 5 m/s 738 mmHg 58%
    14:00 -4°C° 0 mm 5 m/s 737 mmHg 59%
    15:00 -4°C° 0 mm 5 m/s 736 mmHg 60%
    16:00 -4°C° 0 mm 5 m/s 735 mmHg 61%
    17:00 -5°C° 0 mm 5 m/s 735 mmHg 61%
    18:00 -5°C° 0 mm 5 m/s 734 mmHg 60%
    19:00 -5°C° 0 mm 5 m/s 734 mmHg 60%
    20:00 -5°C° 0 mm 5 m/s 733 mmHg 61%
    21:00 -5°C° 0 mm 5 m/s 733 mmHg 61%
    22:00 -5°C° 0 mm 5 m/s 732 mmHg 62%
    23:00 -5°C° 0 mm 5 m/s 732 mmHg 64%

    23 Janeiro, Quarta-feira

    Tempo Temperatura Precipitação Vento Pressão Humidade
    00:00 -4°C° 0 mm 4 m/s 732 mmHg 65%
    01:00 -5°C° 0 mm 4 m/s 731 mmHg 66%
    02:00 -5°C° 0 mm 4 m/s 731 mmHg 67%
    03:00 -5°C° 0 mm 4 m/s 731 mmHg 68%
    04:00 -5°C° 0 mm 4 m/s 730 mmHg 69%
    05:00 -5°C° 0 mm 4 m/s 730 mmHg 71%
    06:00 -5°C° 0 mm 4 m/s 730 mmHg 73%
    07:00 -5°C° 0 mm 3 m/s 730 mmHg 75%
    08:00 -5°C° 0 mm 3 m/s 730 mmHg 74%
    09:00 -5°C° 0 mm 3 m/s 730 mmHg 74%
    10:00 -5°C° 0 mm 3 m/s 730 mmHg 74%
    11:00 -4°C° 0 mm 3 m/s 730 mmHg 72%
    12:00 -4°C° 0 mm 3 m/s 729 mmHg 71%
    13:00 -2°C° 0 mm 3 m/s 729 mmHg 69%
    14:00 -4°C° 0.1 mm 3 m/s 729 mmHg 72%
    15:00 -4°C° 0.1 mm 3 m/s 729 mmHg 74%
    16:00 -4°C° 0.1 mm 3 m/s 729 mmHg 76%
    17:00 -4°C° 0 mm 3 m/s 729 mmHg 78%
    18:00 -5°C° 0 mm 3 m/s 729 mmHg 79%
    19:00 -5°C° 0 mm 3 m/s 729 mmHg 80%
    20:00 -4°C° 0 mm 2 m/s 729 mmHg 82%
    21:00 -4°C° 0 mm 2 m/s 729 mmHg 84%
    22:00 -4°C° 0 mm 2 m/s 729 mmHg 86%
    23:00 -4°C° 0.2 mm 2 m/s 729 mmHg 87%
    Mostrar mais